DW0931 Weather Reports


Display with metric or nautical units.
time (UTC)temp
F
wind
direction
speed
MPH
gust
MPH
rain 1hr
in
rain 24hr
in
rain mn
in
humidity
%
barometer
mb
20260504150258 71 5 0.0 0.0 0.00 0.00 0.00 40 1008.9
20260504141148 67 5 0.0 0.0 0.00 0.00 0.00 44 1007.8
20260504140133 67 5 0.0 0.0 0.00 0.00 0.00 44 1007.8
20260504140128 67 5 0.0 0.0 0.00 0.00 0.00 46 1007.7
20260504081746 72 5 0.0 0.0 0.00 0.00 0.00 34 1006.3
20260504080746 73 5 0.0 0.0 0.00 0.00 0.00 33 1006.4
20260504050449 77 5 0.0 0.0 0.00 0.00 0.00 21 1006.5
20260504045448 78 5 0.0 0.0 0.00 0.00 0.00 20 1006.6
20260504044449 78 5 0.0 0.0 0.00 0.00 0.00 20 1006.5
20260504043445 78 5 0.0 0.0 0.00 0.00 0.00 19 1006.4
20260504042445 79 5 0.0 0.0 0.00 0.00 0.00 19 1006.3
20260504041427 79 5 0.0 0.0 0.00 0.00 0.00 18 1006.1
20260504040409 80 5 0.0 0.0 0.00 0.00 0.00 17 1005.8
20260504035409 80 5 0.0 0.0 0.00 0.00 0.00 16 1005.5
20260504034354 81 5 0.0 0.0 0.00 0.00 0.00 15 1005.1
20260504033353 81 5 0.0 0.0 0.00 0.00 0.00 15 1004.9
20260504032351 81 5 0.0 0.0 0.00 0.00 0.00 15 1004.7
20260504031354 82 5 0.0 0.0 0.00 0.00 0.00 15 1004.4
20260504031349 82 5 0.0 0.0 0.00 0.00 0.00 15 1004.2
20260504030324 82 5 0.0 0.0 0.00 0.00 0.00 16 1004.0
20260504024323 83 5 0.0 0.0 0.00 0.00 0.00 16 1003.8
20260504023319 83 5 0.0 0.0 0.00 0.00 0.00 16 1003.7
20260504022304 84 5 0.0 0.0 0.00 0.00 0.00 16 1003.5
20260504020256 85 5 0.0 0.0 0.00 0.00 0.00 14 1003.1
20260504015257 85 5 0.0 0.0 0.00 0.00 0.00 14 1003.0
20260504014257 86 5 0.0 0.0 0.00 0.00 0.00 13 1002.9
20260504013259 87 5 0.0 0.0 0.00 0.00 0.00 13 1002.7
20260504013255 88 5 0.0 0.0 0.00 0.00 0.00 12 1002.5
20260504011253 89 5 0.0 0.0 0.00 0.00 0.00 12 1002.5
20260504010253 90 5 0.0 0.0 0.00 0.00 0.00 12 1002.6
20260504005251 91 5 0.0 0.0 0.00 0.00 0.00 12 1002.6
20260504004251 92 5 0.0 0.0 0.00 0.00 0.00 11 1002.6
20260504003247 93 5 0.0 0.0 0.00 0.00 0.00 10 1002.3
20260504001237 94 5 0.0 0.0 0.00 0.00 0.00 10 1002.4
20260504000219 94 5 0.0 0.0 0.00 0.00 0.00 11 1002.4
20260503235201 95 5 0.0 0.0 0.00 0.00 0.00 10 1002.4
20260503234157 96 5 0.0 0.0 0.00 0.00 0.00 10 1002.3
20260503233156 96 5 0.0 0.0 0.00 0.00 0.00 10 1002.6
20260503232158 97 5 0.0 0.0 0.00 0.00 0.00 10 1002.8
20260503232152 97 5 0.0 0.0 0.00 0.00 0.00 10 1003.0
20260503230152 97 5 0.0 0.0 0.00 0.00 0.00 9 1003.1
20260503225147 96 5 0.0 0.0 0.00 0.00 0.00 10 1003.3
20260503224143 96 5 0.0 0.0 0.00 0.00 0.00 10 1003.5
20260503223119 95 5 0.0 0.0 0.00 0.00 0.00 10 1003.8
20260503222115 95 5 0.0 0.0 0.00 0.00 0.00 11 1004.1
20260503221053 96 5 0.0 0.0 0.00 0.00 0.00 11 1004.2
20260503220029 96 5 0.0 0.0 0.00 0.00 0.00 11 1004.3
20260503215021 96 5 0.0 0.0 0.00 0.00 0.00 11 1004.4
20260503215016 96 5 0.0 0.0 0.00 0.00 0.00 11 1004.4
20260503212957 97 5 0.0 0.0 0.00 0.00 0.00 12 1004.5
20260503211957 96 5 0.0 0.0 0.00 0.00 0.00 12 1005.0
20260503210952 96 5 0.0 0.0 0.00 0.00 0.00 13 1005.1
20260503210104 95 5 0.0 0.0 0.00 0.00 0.00 15 1005.1
20260503203953 95 5 0.0 0.0 0.00 0.00 0.00 15 1005.5
20260503202953 95 5 0.0 0.0 0.00 0.00 0.00 15 1005.7
20260503201951 94 5 0.0 0.0 0.00 0.00 0.00 16 1005.8
20260503200949 94 5 0.0 0.0 0.00 0.00 0.00 16 1006.0
20260503195949 94 5 0.0 0.0 0.00 0.00 0.00 15 1006.2
20260503194945 93 5 0.0 0.0 0.00 0.00 0.00 15 1006.3
20260503193945 93 5 0.0 0.0 0.00 0.00 0.00 15 1006.6
20260503192931 94 5 0.0 0.0 0.00 0.00 0.00 14 1006.6
20260503192915 93 5 0.0 0.0 0.00 0.00 0.00 14 1006.8
20260503190858 92 5 0.0 0.0 0.00 0.00 0.00 15 1007.2
20260503190853 92 5 0.0 0.0 0.00 0.00 0.00 15 1007.2
20260503184854 92 5 0.0 0.0 0.00 0.00 0.00 15 1007.4
20260503183853 91 5 0.0 0.0 0.00 0.00 0.00 16 1007.4
20260503183842 89 5 0.0 0.0 0.00 0.00 0.00 18 1007.5
20260503181835 89 5 0.0 0.0 0.00 0.00 0.00 18 1007.8
20260503180821 88 5 0.0 0.0 0.00 0.00 0.00 19 1007.9
20260503175803 87 5 0.0 0.0 0.00 0.00 0.00 20 1008.0
20260503174801 86 5 0.0 0.0 0.00 0.00 0.00 22 1008.1
20260503173800 85 5 0.0 0.0 0.00 0.00 0.00 22 1008.1
20260503172756 84 5 0.0 0.0 0.00 0.00 0.00 22 1008.4
20260503171755 84 5 0.0 0.0 0.00 0.00 0.00 23 1008.4
20260503170758 82 5 0.0 0.0 0.00 0.00 0.00 25 1008.5
20260503170754 83 5 0.0 0.0 0.00 0.00 0.00 24 1008.3